Weather in Manja

Madagascar     21°25′58″S   44°19′34″E
temp.,
°C
wind,
m/s
gust,
m/s
humid.,
%
clouds,
%
prec.,
mm/h
press.,
hPa
HPBL,
m
25 june, sat
sat2500:00+16ese22633 0.0 102226
03:00+14se311725 0.0 1021248
06:00+14ese39760 0.0 1021177
09:00+21se47450 0.0 1023404
12:00+27se34290 0.0 10201824
15:00+28s23240 0.0 10182447
18:00+21w24440 0.0 102079
21:00+18sw38610 0.0 1022205
26 june, sun
sun2600:00+16s24690 0.0 102272
03:00+15sse39760 0.0 1022220
06:00+14se311870 0.0 1023243
09:00+21se47510 0.0 1024457
12:00+27sse35250 0.0 10221868
15:00+30sse25150 0.0 10182683
18:00+22s35280 0.0 101990
21:00+19sse412420 0.0 1022347
27 june, mon
mon2700:00+17se512510 0.0 1023343
03:00+15se512610 0.0 1022314
06:00+15se513770 0.0 1023386
09:00+21se612580 0.0 1024703
12:00+28ese56330 0.0 10231691
15:00+29ese46270 0.0 10212607
18:00+23ese511430 0.0 1022663
21:00+20ese513620 0.0 1024674
28 june, tue
tue2800:00+18ese615650 0.0 1025740
03:00+16ese715610 0.0 1025680
06:00+16ese715580 0.0 1026768
09:00+20ese815500 0.0 1027916
12:00+25ese610290 0.0 10251634
15:00+26ese68270 0.0 10232096
18:00+22e510360 0.0 1024510
21:00+19ese613510 0.0 1026930
29 june, wed
wed2900:00+16ese717530 0.0 1026890
03:00+15ese718610 0.0 1025707
06:00+14ese617660 0.0 1025622
09:00+19e714480 0.0 1026718
12:00+26e66290 0.0 10241566
15:00+28e46240 0.0 10212250
18:00+21ese38350 0.0 1021156
21:00+20e513462 0.0 1023592